Tracking 29892 objects as of 21-Nov-2024
HD Live streaming from Space Station
objects crossing your sky now

SMS 2 AKM

Track SMS 2 AKM now!


NORAD ID: 20835
Int'l Code: 1975-011F
Perigee: 35,871.0 km
Apogee: 36,673.8 km
Inclination: 5.3 °
Period: 1,460.6 minutes
Semi major axis: 42643 km
RCS: 0.7943 m2 (medium)
Launch date: February 6, 1975
Source: United States (US)
Launch site: AIR FORCE EASTERN TEST RANGE (AFETR)

Note: This is a ROCKET BODY
Your satellite tracking list
Your tracking list is empty




NASA's NSSDC Master Catalog

Two Line Element Set (TLE):
1 20835U 75011F   24325.74415937 -.00000166  00000-0  00000-0 0  9992
2 20835   5.2701 281.0635 0094132 127.4379  43.1010  0.98588290 40925
Source of the keplerian elements: AFSPC